Flag for Guatemala Weather past 2 weeks in Guatemala, Guatemala

Now
77 °F

Overcast.


Feels Like: 79 °F
Forecast: N/A
Wind: 14 mph from Northeast

Location: Guatemala Aeropuertola Aurora

Current Time: Jul 29, 2015 at 5:08:07 PM

Latest Report: Jul 29, 2015 at 4:00 PM


Visibility: N/A

Pressure: 30.24 "Hg (25.37 "Hg at 1533m altitude)

Humidity: 51%

Dew point: 57 °F

Location of GuatemalaLocation

Historic Weather in Guatemala — Graph

°F

Guatemala temperature yesterday

Maximum temperature yesterday: 79 °F (at 2:00 PM)
Minimum temperature yesterday: 64 °F (at 1:00 AM)
Average temperature yesterday: 70 °F

Past Weeks' High & Low Weather Summary

 TemperatureHumidityPressure
High81 °F (Jul 23, 2:00 PM)100% (Jul 14, 7:00 PM)30.36 "Hg (Jul 14, 7:00 PM)
Low61 °F (Jul 14, 5:00 PM)42% (Jul 26, 4:00 PM)30.18 "Hg (Jul 19, 2:00 AM)
Average69 °F79%30.28 "Hg
* Reported Jul 14 4:00 PM — Jul 29 4:00 PM, Guatemala, Weather by CustomWeather, © 2015

Note: Actual official high and low records may vary slightly from our data, if they occured in-between our weather recording intervals... More about our weather records

Advertising

Guatemala weather history for previous 24 hours

 ConditionsComfort  
Time TempWeatherWind HumidityBarometerVisibility
4:00 PM
Wed, Jul 29
77 °FOvercast.14 mph51%30.24 "HgN/A
3:00 PM77 °FOvercast.14 mph54%30.21 "HgN/A
2:00 PM79 °FOvercast.16 mph48%30.27 "HgN/A
1:00 PM77 °FOvercast.12 mph51%30.30 "HgN/A
12:00 PM77 °FOvercast.14 mph51%30.27 "HgN/A
11:00 AM75 °FOvercast.14 mph54%30.27 "HgN/A
10:00 AM72 °FPartly sunny.14 mph65%30.27 "HgN/A
9:00 AM70 °FBroken clouds.14 mph73%30.27 "HgN/A
8:00 AM68 °FBroken clouds.14 mph78%30.27 "HgN/A
7:00 AM64 °FBroken clouds.14 mph88%30.27 "HgN/A
6:00 AM64 °FBroken clouds.12 mph88%30.27 "HgN/A
4:00 AM64 °FPassing clouds.12 mph88%30.24 "HgN/A
3:00 AM64 °FPassing clouds.12 mph94%30.24 "HgN/A
2:00 AM66 °FPassing clouds.12 mph94%30.27 "HgN/A
1:00 AM66 °FPassing clouds.14 mph94%30.30 "HgN/A
12:00 AM66 °FPassing clouds.12 mph88%30.30 "HgN/A
11:00 PM
Tue, Jul 28
68 °FPassing clouds.16 mph83%30.30 "HgN/A
10:00 PM70 °FPassing clouds.9 mph78%30.30 "HgN/A
9:00 PM70 °FPassing clouds.9 mph78%30.27 "HgN/A
8:00 PM72 °FPassing clouds.12 mph73%30.24 "HgN/A
7:00 PM73 °FPassing clouds.14 mph65%30.24 "HgN/A
6:00 PM77 °FScattered clouds.16 mph54%30.21 "HgN/A
5:00 PM79 °FScattered clouds.16 mph54%30.21 "HgN/A
Weather by CustomWeather, © 2015

See weather overviewHow to use our weather pages